Total_Precipitation_Accumulation
0.59 0.62 0.61 0.57 0.53 0.55 0.65 0.75 1.14 1.55 2.03 2.44 2.61 2.61 2.69 2.57 2.36 1.99 1.85 1.93 1.91 1.85 1.85 1.75 1.70 1.84 1.91 1.81 1.70 1.95 2.01 1.91 1.76 1.59 1.61 1.65 1.63 1.57 1.50 1.44 1.35 1.42 1.46 1.38
0.59 0.49 0.56 0.62 0.65 0.72 0.81 0.88 1.10 1.62 2.32 2.62 2.70 2.68 2.72 2.62 2.45 2.35 2.22 2.11 2.07 2.02 2.03 1.98 1.87 1.92 2.05 1.98 1.83 1.96 1.99 2.04 2.05 1.93 1.89 1.80 1.64 1.56 1.57 1.56 1.49 1.40 1.37 1.28
0.93 0.59 0.83 1.27 0.99 0.94 1.09 1.16 1.40 2.03 2.37 2.31 2.41 2.59 2.78 2.83 2.71 2.60 2.56 2.41 2.36 2.33 2.28 2.28 2.24 2.19 2.17 2.06 1.92 1.93 2.04 2.11 2.09 2.02 1.96 1.90 1.67 1.56 1.62 1.63 1.59 1.51 1.37 1.33
1.08 1.19 1.92 1.77 1.06 1.03 1.25 1.45 1.65 1.92 2.01 2.05 2.08 2.21 2.34 2.47 2.57 2.56 2.47 2.40 2.42 2.51 2.43 2.40 2.30 2.23 2.14 2.04 2.03 2.06 2.11 2.11 2.04 1.89 1.87 1.82 1.74 1.70 1.66 1.59 1.56 1.52 1.43 1.32
1.29 1.65 1.92 1.77 1.14 1.18 1.62 2.18 1.84 1.83 1.69 1.55 1.53 1.79 2.27 2.36 2.36 2.49 2.51 2.45 2.43 2.40 2.32 2.29 2.24 2.18 2.10 2.04 2.04 2.02 2.00 1.92 1.84 1.74 1.76 1.68 1.67 1.63 1.59 1.51 1.46 1.40 1.31 1.24
1.39 1.95 2.34 2.15 1.18 0.99 1.51 2.71 2.08 1.80 1.70 1.60 1.70 2.19 2.38 2.23 2.24 2.20 2.19 2.22 2.13 1.96 1.86 2.01 2.14 2.14 2.07 1.99 1.96 1.93 1.72 1.53 1.45 1.50 1.58 1.46 1.38 1.34 1.33 1.35 1.34 1.25 1.16 1.17
1.50 2.02 2.28 1.40 0.88 1.08 2.27 2.82 2.18 1.80 1.64 1.65 1.94 2.14 1.89 1.71 1.81 1.85 1.82 1.74 1.65 1.59 1.65 1.79 1.86 1.88 1.90 1.82 1.82 1.71 1.54 1.44 1.40 1.35 1.33 1.30 1.29 1.29 1.22 1.18 1.24 1.25 1.23 1.18
1.62 2.18 2.34 1.17 0.99 1.63 2.03 1.68 1.63 1.56 1.46 1.44 1.44 1.36 1.37 1.41 1.39 1.39 1.41 1.39 1.32 1.39 1.50 1.58 1.55 1.54 1.62 1.64 1.59 1.49 1.46 1.41 1.44 1.34 1.16 1.20 1.37 1.33 1.28 1.31 1.31 1.26 1.23 1.16
1.71 2.08 1.78 1.17 1.14 1.28 1.33 1.30 1.22 1.21 1.13 1.07 1.08 0.95 1.02 1.15 1.10 1.07 1.08 1.13 1.18 1.19 1.28 1.42 1.45 1.47 1.52 1.48 1.41 1.40 1.47 1.46 1.38 1.28 1.33 1.33 1.37 1.36 1.29 1.26 1.18 1.07 1.03 0.99
1.42 1.51 1.31 1.15 1.10 1.08 0.99 0.97 0.90 0.95 1.03 0.99 0.99 1.02 1.04 1.02 0.99 0.92 0.94 0.98 1.07 1.12 1.13 1.24 1.27 1.30 1.38 1.33 1.33 1.45 1.55 1.51 1.38 1.27 1.24 1.28 1.31 1.27 1.17 1.08 1.04 0.97 0.94 0.90
1.42 1.40 1.34 1.29 1.06 0.99 0.92 0.84 0.80 0.86 0.94 0.99 0.99 1.03 1.02 0.98 0.97 0.96 0.98 1.02 1.08 1.15 1.14 1.09 1.07 1.12 1.12 1.14 1.26 1.47 1.44 1.30 1.19 1.05 1.01 1.06 1.07 1.04 1.00 0.90 0.85 0.84 0.79 0.74
1.42 1.26 1.32 1.36 1.07 0.92 0.93 0.89 0.87 0.87 0.96 1.08 1.10 1.13 1.09 1.02 1.00 1.00 1.00 0.99 1.08 1.07 1.01 1.03 1.07 1.08 1.03 0.98 1.09 1.31 1.31 1.10 0.95 0.87 0.83 0.76 0.75 0.77 0.73 0.70 0.70 0.67 0.67 0.62
1.02 0.93 0.92 0.87 0.76 0.76 0.76 0.74 0.78 0.81 0.92 1.05 1.07 1.06 0.97 0.97 0.98 1.03 1.07 1.03 1.03 1.01 0.96 0.93 0.97 0.98 0.98 0.92 0.93 1.02 1.07 0.90 0.76 0.71 0.71 0.70 0.69 0.78 0.81 0.68 0.62 0.60 0.60 0.58
0.76 0.79 0.85 0.84 0.83 0.75 0.70 0.72 0.78 0.79 0.79 0.86 0.94 0.94 0.91 0.92 0.95 0.97 0.99 0.94 0.82 0.77 0.83 0.84 0.84 0.80 0.73 0.69 0.79 0.82 0.76 0.66 0.60 0.62 0.62 0.59 0.58 0.66 0.76 0.83 0.80 0.69 0.62 0.61
0.73 0.75 0.86 0.86 0.83 0.74 0.73 0.77 0.88 0.91 0.82 0.79 0.79 0.81 0.79 0.78 0.83 0.85 0.82 0.77 0.77 0.78 0.79 0.76 0.77 0.77 0.61 0.54 0.61 0.63 0.59 0.57 0.54 0.51 0.49 0.47 0.47 0.50 0.54 0.63 0.74 0.79 0.75 0.73
0.75 0.73 0.79 0.80 0.83 0.80 0.78 0.83 0.94 0.96 0.82 0.81 0.85 0.88 0.80 0.76 0.73 0.76 0.76 0.76 0.79 0.80 0.77 0.75 0.76 0.67 0.57 0.55 0.57 0.59 0.51 0.46 0.48 0.46 0.45 0.46 0.46 0.48 0.52 0.58 0.65 0.72 0.75 0.73
0.83 0.88 0.85 0.80 0.77 0.79 0.76 0.71 0.74 0.85 0.79 0.76 0.76 0.77 0.74 0.72 0.72 0.79 0.87 0.87 0.82 0.76 0.72 0.72 0.69 0.56 0.49 0.50 0.51 0.49 0.42 0.39 0.42 0.41 0.42 0.44 0.47 0.51 0.56 0.57 0.63 0.72 0.75 0.74
0.83 0.85 0.81 0.76 0.73 0.69 0.64 0.59 0.56 0.65 0.72 0.71 0.69 0.66 0.67 0.71 0.76 0.83 0.89 0.82 0.74 0.71 0.66 0.62 0.59 0.53 0.48 0.46 0.49 0.47 0.46 0.45 0.44 0.43 0.41 0.43 0.47 0.54 0.64 0.69 0.70 0.70 0.73 0.69
0.68 0.66 0.65 0.63 0.64 0.60 0.54 0.52 0.49 0.51 0.58 0.63 0.64 0.64 0.67 0.72 0.78 0.84 0.85 0.75 0.72 0.73 0.63 0.57 0.56 0.51 0.51 0.50 0.52 0.54 0.52 0.47 0.49 0.50 0.44 0.45 0.46 0.51 0.60 0.67 0.68 0.71 0.70 0.64
0.56 0.56 0.57 0.56 0.56 0.55 0.54 0.49 0.44 0.46 0.50 0.58 0.62 0.65 0.64 0.66 0.73 0.75 0.76 0.75 0.72 0.67 0.59 0.53 0.48 0.47 0.50 0.50 0.50 0.54 0.58 0.56 0.59 0.63 0.55 0.50 0.49 0.50 0.53 0.55 0.56 0.61 0.66 0.63
0.51 0.51 0.54 0.53 0.56 0.56 0.50 0.44 0.41 0.44 0.45 0.53 0.60 0.62 0.60 0.60 0.64 0.67 0.71 0.72 0.65 0.56 0.52 0.49 0.45 0.42 0.41 0.46 0.48 0.48 0.53 0.57 0.60 0.61 0.59 0.55 0.51 0.48 0.50 0.51 0.52 0.57 0.62 0.60
0.51 0.51 0.53 0.51 0.53 0.59 0.52 0.42 0.40 0.42 0.47 0.53 0.55 0.56 0.59 0.62 0.62 0.66 0.67 0.71 0.67 0.58 0.46 0.41 0.39 0.39 0.39 0.38 0.36 0.35 0.36 0.42 0.50 0.54 0.57 0.55 0.50 0.48 0.52 0.54 0.54 0.54 0.56 0.54
0.55 0.54 0.57 0.60 0.65 0.68 0.60 0.48 0.44 0.43 0.48 0.53 0.55 0.61 0.68 0.68 0.61 0.64 0.68 0.63 0.60 0.57 0.45 0.39 0.37 0.36 0.33 0.29 0.29 0.30 0.29 0.30 0.34 0.41 0.45 0.47 0.48 0.48 0.49 0.53 0.55 0.56 0.53 0.53
0.62 0.59 0.58 0.64 0.73 0.71 0.69 0.61 0.54 0.48 0.47 0.50 0.56 0.65 0.69 0.63 0.53 0.53 0.60 0.61 0.60 0.54 0.48 0.45 0.39 0.34 0.30 0.28 0.29 0.30 0.32 0.33 0.36 0.40 0.41 0.40 0.42 0.45 0.47 0.50 0.54 0.54 0.53 0.53
0.60 0.62 0.60 0.66 0.74 0.71 0.67 0.61 0.54 0.50 0.51 0.54 0.56 0.58 0.57 0.52 0.50 0.46 0.43 0.43 0.45 0.42 0.40 0.39 0.37 0.35 0.32 0.30 0.32 0.33 0.35 0.36 0.38 0.39 0.40 0.41 0.40 0.42 0.45 0.51 0.57 0.59 0.58 0.57
0.66 0.73 0.74 0.73 0.71 0.66 0.60 0.55 0.55 0.57 0.60 0.60 0.58 0.55 0.50 0.47 0.48 0.45 0.38 0.35 0.37 0.37 0.34 0.33 0.31 0.32 0.33 0.34 0.38 0.39 0.39 0.39 0.39 0.38 0.39 0.40 0.42 0.46 0.49 0.57 0.60 0.61 0.59 0.54
0.76 0.76 0.76 0.74 0.65 0.59 0.59 0.56 0.55 0.58 0.62 0.64 0.61 0.53 0.47 0.45 0.45 0.43 0.37 0.34 0.34 0.35 0.32 0.31 0.30 0.31 0.33 0.34 0.36 0.36 0.35 0.40 0.45 0.46 0.46 0.46 0.47 0.51 0.55 0.59 0.61 0.63 0.59 0.54